Theta_e
313 313 314 314 314 314 314 314 314 314 314 314 314 314 314 314 314 314 314 313 312 311 310 310 310 310 310 310 310 309 309 309 309 308 307 306 305 305 305 303 301 299 297 297 297 298 297 297 297 297 297 296 295 295 295 295 294 294 293 292 291 291 290 289 287 288 291 294 293 294 294 289 287 287 287 286 286 286 287 286 286 285 285 285 286
313 313 313 313 313 313 313 313 313 313 312 312 312 312 312 312 312 312 311 311 311 310 309 310 309 309 309 309 309 309 309 309 309 308 306 305 304 305 304 301 299 299 297 297 296 297 295 295 295 296 296 295 295 295 295 295 294 293 292 291 291 291 291 289 288 288 288 291 291 293 293 294 292 290 286 287 286 285 285 285 285 285 285 284 284
312 312 312 312 312 312 312 311 311 311 310 310 310 310 310 310 310 310 309 309 310 309 309 309 308 308 308 308 308 308 308 308 308 307 306 305 304 303 303 300 298 297 296 296 296 296 295 295 296 296 297 295 295 295 295 294 294 293 292 292 291 291 291 290 289 288 288 289 291 291 291 291 289 289 288 288 287 286 285 284 284 285 284 284 284
311 311 310 310 311 310 310 310 309 309 308 309 309 309 309 309 309 308 308 308 308 308 308 307 307 307 307 306 306 306 307 307 307 306 306 305 305 303 300 299 299 298 297 297 296 296 295 295 295 296 296 295 295 295 295 295 294 294 293 293 292 291 291 291 290 289 288 288 290 290 291 291 291 290 289 288 286 286 285 285 285 284 284 284 284
310 309 309 308 308 308 308 308 307 307 307 308 307 308 308 307 307 307 307 306 306 306 306 306 305 305 305 305 305 305 305 305 305 306 305 305 304 304 302 301 300 299 298 298 295 296 296 295 296 296 296 294 295 295 295 294 295 294 293 293 292 291 291 290 290 289 288 287 288 290 291 291 291 291 287 285 285 284 284 284 284 284 284 284 284
308 308 307 307 307 306 306 306 306 306 306 306 306 307 306 306 306 306 305 305 305 305 304 304 303 302 303 304 304 304 305 304 304 304 304 304 303 303 302 301 300 299 298 298 298 297 297 296 296 296 295 295 295 295 295 295 295 294 293 293 292 292 291 290 290 289 288 288 288 288 290 290 290 290 288 285 285 285 283 283 283 283 283 283 283
306 306 306 306 306 305 305 305 305 305 305 305 305 305 304 304 303 303 303 303 302 302 302 301 301 301 301 302 302 303 303 303 304 303 303 303 302 301 301 301 300 300 299 298 298 298 297 297 296 296 296 296 296 296 296 295 294 294 294 293 293 292 291 290 290 289 289 288 288 289 288 290 289 288 289 286 285 285 284 283 281 282 282 282 281
304 305 305 304 305 305 304 304 304 304 304 304 303 302 302 301 301 302 301 300 300 300 300 300 300 300 301 301 301 302 301 302 303 303 303 302 302 300 300 300 299 299 299 299 298 298 298 297 297 297 297 297 297 297 297 296 295 294 294 294 293 292 291 290 290 289 289 288 288 288 289 288 289 289 289 283 282 282 283 282 282 283 281 281 281
303 303 304 304 304 305 304 303 303 302 301 301 300 300 300 300 299 299 299 299 300 299 300 300 299 299 299 300 299 300 300 300 301 300 301 301 301 300 300 300 299 298 298 298 298 298 298 298 298 298 296 293 293 294 295 295 296 295 295 295 293 292 291 291 290 289 289 288 288 289 288 288 288 288 287 286 284 284 285 282 281 283 283 280 281
302 302 302 303 304 303 302 301 300 300 300 299 299 299 298 298 298 297 297 298 298 298 298 298 298 298 298 298 298 299 299 300 296 294 295 299 300 300 300 299 299 298 298 297 298 298 298 298 298 293 292 291 291 292 293 293 293 295 295 294 292 291 290 290 290 289 289 288 288 288 287 288 288 289 288 288 288 286 284 283 281 282 282 281 281
302 302 303 303 301 300 300 300 299 299 299 299 298 297 297 297 297 296 296 296 296 297 297 297 297 297 297 296 297 298 299 299 294 295 295 295 296 296 297 297 297 297 297 297 296 297 297 297 298 294 291 290 291 291 292 293 293 293 292 292 293 292 290 289 289 289 289 289 289 288 288 288 289 289 288 288 288 287 285 284 283 282 280 279 277
301 301 301 300 300 300 299 299 298 298 297 297 296 296 296 295 295 296 296 295 295 296 295 296 296 296 297 296 296 296 297 295 295 295 294 294 293 294 295 295 295 296 296 296 297 297 297 297 297 297 297 296 296 295 292 291 292 292 292 292 292 292 293 291 290 290 289 288 288 288 288 288 288 289 288 288 288 287 286 285 284 282 281 280 280
300 299 299 299 298 298 298 297 296 296 296 295 294 294 293 292 294 294 294 295 295 295 294 295 295 295 296 295 295 296 296 294 294 294 294 294 294 293 294 294 294 294 295 295 295 296 296 296 296 297 298 291 291 295 296 294 291 291 291 291 291 292 293 293 293 291 291 290 289 289 289 289 288 289 289 289 289 287 286 284 283 283 282 281 281
298 297 297 296 296 296 295 293 294 295 293 292 293 292 292 292 293 294 292 293 294 293 293 293 294 294 295 294 295 295 295 293 294 293 293 293 293 293 293 293 293 294 294 294 294 295 295 295 294 294 295 295 295 295 294 294 294 294 292 292 292 291 290 291 291 291 291 290 290 289 290 290 289 290 289 289 288 287 286 284 283 282 281 281 282
296 295 295 294 294 294 294 293 293 292 291 290 290 290 291 290 291 290 290 292 292 290 291 290 293 292 293 293 293 293 293 293 293 293 293 293 293 292 292 293 293 293 293 294 294 294 294 295 294 294 294 294 294 294 293 293 292 290 290 291 292 293 292 292 291 291 291 291 290 290 290 291 290 291 290 289 288 288 288 286 285 283 283 283 282
293 293 293 293 292 292 292 292 292 292 290 289 289 289 290 289 289 290 290 291 291 290 290 291 289 289 291 292 291 291 293 292 292 292 292 292 293 291 291 291 291 292 292 293 293 294 294 294 294 293 293 293 292 293 292 292 290 288 288 288 289 291 291 291 292 292 291 291 291 291 290 290 291 290 289 289 288 287 287 286 285 283 281 280 279
291 291 290 290 290 290 290 290 289 288 288 287 287 288 288 288 289 289 289 289 290 290 289 289 289 289 288 289 290 290 291 291 291 291 291 292 291 289 289 289 290 290 291 292 292 293 293 293 293 293 293 292 292 293 293 291 289 288 288 288 288 288 289 290 291 292 292 292 292 292 293 293 293 293 293 293 291 288 285 284 282 282 280 278 279
288 289 288 289 289 289 288 288 287 286 286 286 286 287 287 287 288 288 288 288 288 288 289 289 289 289 288 289 290 289 289 289 290 290 291 291 290 288 288 288 288 289 289 290 291 292 292 289 289 291 291 291 292 293 293 290 288 288 287 287 287 287 288 288 289 289 290 291 291 291 291 291 292 292 292 292 292 291 285 282 284 282 280 280 278
287 287 287 288 288 287 287 286 286 285 285 285 286 285 286 287 287 287 287 287 287 288 288 288 289 288 288 288 287 288 288 287 289 290 290 290 289 287 288 288 287 288 288 289 290 291 291 290 288 288 290 290 292 292 292 290 288 288 287 287 286 286 287 288 287 287 287 287 287 287 287 287 287 287 287 289 289 289 287 285 285 283 280 280 280
286 287 287 287 286 286 286 285 285 285 284 285 285 285 286 287 286 286 286 287 288 289 289 287 287 287 287 287 287 289 288 288 288 289 290 290 290 288 288 287 287 287 288 288 288 288 289 290 290 291 292 291 291 292 292 291 288 288 287 287 286 286 288 287 287 287 287 287 286 286 286 286 286 286 285 286 286 286 287 286 285 285 282 281 281
285 286 286 285 285 285 285 285 284 284 285 284 285 285 286 286 285 285 285 286 287 287 286 286 286 287 287 287 288 288 288 287 287 289 289 290 290 289 287 287 287 287 287 287 287 287 288 288 289 290 291 292 291 291 291 291 291 288 287 287 287 287 288 287 287 286 286 286 286 286 286 285 285 285 285 285 285 286 286 286 285 285 284 282 281
284 285 284 284 284 284 284 284 284 284 284 285 284 284 285 285 285 285 286 286 285 285 285 286 286 287 287 288 287 287 287 287 287 288 289 289 289 289 287 286 287 286 286 286 287 287 287 288 288 289 290 290 290 291 291 291 291 289 288 290 290 290 288 288 288 287 287 286 285 285 284 284 283 284 284 284 284 285 285 285 285 285 285 285 283
283 283 283 283 283 283 283 283 283 284 284 284 284 284 285 285 285 285 285 285 285 285 285 286 286 287 287 288 288 288 288 288 287 287 287 289 289 289 289 288 288 287 286 285 286 286 287 287 288 288 289 289 289 290 290 290 289 288 290 290 290 290 289 288 287 287 286 285 284 283 283 283 282 282 283 283 284 284 284 285 285 285 284 285 284
281 281 281 281 281 281 282 282 283 283 283 283 283 284 284 284 284 285 285 285 285 285 286 286 286 286 286 287 288 289 288 288 287 286 287 288 289 289 289 289 289 287 286 286 286 287 286 287 287 288 288 288 289 289 289 289 288 289 289 289 289 288 287 287 286 286 285 284 283 282 282 283 282 282 282 283 283 284 284 284 284 284 283 281 280
279 278 278 279 279 279 279 281 281 281 281 282 281 282 283 283 282 284 284 284 284 284 285 285 286 286 286 286 287 288 288 288 288 286 286 286 288 288 288 288 288 288 286 286 286 286 286 287 287 287 287 287 287 287 287 287 288 288 288 288 287 287 286 286 286 285 284 283 282 282 282 282 282 282 283 283 283 282 279 277 277 277 277 277 277
276 276 276 277 277 277 277 279 278 279 280 281 281 281 281 281 281 282 283 283 284 284 284 285 285 285 286 286 287 287 287 287 287 287 287 286 285 286 287 287 286 286 285 284 284 285 286 286 286 286 285 286 285 284 285 285 286 287 286 286 286 286 286 285 285 284 283 283 282 282 281 282 281 282 282 282 281 280 278 276 275 275 276 276 275
274 274 274 275 276 276 275 276 276 277 278 278 279 280 281 281 281 281 282 283 283 283 283 284 284 284 284 284 285 285 285 286 286 287 287 287 286 286 286 285 286 285 285 286 285 285 286 285 285 286 285 286 285 285 284 285 285 285 286 286 286 286 285 285 285 284 283 282 282 282 281 281 281 280 279 279 279 279 278 277 276 275 276 276 274
273 273 273 274 274 274 274 275 275 275 276 277 277 277 278 279 279 279 280 280 280 280 281 281 281 281 281 282 282 283 283 284 285 285 284 284 284 285 285 285 285 285 285 285 286 286 285 285 286 285 285 285 285 285 285 285 285 285 285 285 285 285 285 285 285 285 284 283 282 282 281 280 279 279 279 278 278 278 278 277 276 275 276 275 272
272 272 273 273 272 273 273 273 274 274 274 275 276 276 276 276 277 278 280 281 281 280 279 280 280 281 281 281 280 280 281 282 284 285 284 285 284 284 284 284 284 284 285 286 285 285 285 285 285 285 285 284 284 285 285 285 284 285 284 284 284 284 284 283 283 282 283 282 281 280 280 279 278 279 278 277 277 277 277 276 276 275 274 275 273
271 271 271 271 272 272 272 273 273 273 274 274 274 275 277 278 278 278 278 281 281 282 281 280 281 281 280 281 282 280 280 282 284 284 284 285 285 285 285 285 286 285 285 286 285 284 283 283 283 284 284 284 283 283 283 283 283 282 282 283 283 282 282 283 282 282 282 281 281 280 279 278 277 278 277 277 276 276 277 276 275 275 273 274 272
269 269 270 270 271 271 271 272 273 273 274 274 274 274 274 277 279 280 280 280 280 280 281 281 282 282 281 280 282 283 283 284 284 284 284 285 285 285 285 285 286 286 286 285 284 283 283 282 283 283 283 283 283 283 283 282 282 281 281 282 282 282 282 282 282 282 281 281 280 280 279 278 277 277 276 276 275 275 275 276 275 274 274 274 272
266 267 268 269 270 270 271 272 273 273 273 274 273 273 274 274 275 278 279 279 280 280 281 281 282 282 282 282 282 281 283 284 284 284 284 284 284 285 285 285 285 286 286 286 283 282 283 282 282 282 283 282 283 283 282 282 281 281 281 280 281 282 282 281 282 282 281 280 279 279 278 278 277 277 276 276 275 275 275 274 274 274 274 274 273
265 267 268 269 269 270 271 271 272 272 272 272 273 273 273 273 273 274 277 279 280 280 281 281 281 282 282 283 283 283 283 283 284 284 284 284 284 284 284 285 285 286 286 284 283 282 282 282 282 282 282 282 283 282 282 281 281 281 281 281 280 281 282 282 283 281 281 280 280 279 278 278 277 277 277 276 275 274 274 274 274 274 274 273 272
266 266 267 268 268 269 270 271 271 271 272 272 272 273 273 274 274 274 274 275 277 279 280 281 281 282 282 282 282 283 283 283 283 283 283 283 283 283 284 283 285 286 285 283 283 282 282 282 282 282 282 283 282 282 281 281 281 281 281 281 281 281 282 282 282 281 280 280 279 279 278 278 277 276 276 276 276 275 274 274 274 273 273 273 271
265 266 268 268 268 269 269 270 270 270 271 271 272 272 273 274 274 274 274 274 274 275 276 278 280 281 281 281 282 283 283 283 283 282 282 282 283 283 284 282 281 282 283 284 283 282 282 282 281 282 282 282 282 282 281 281 281 281 281 280 281 281 281 281 281 281 280 279 279 278 278 277 277 277 276 275 275 274 274 274 273 273 273 273 272
265 266 267 267 267 267 268 269 269 270 270 271 272 272 273 274 274 274 275 275 275 275 276 277 278 280 281 281 282 282 282 281 281 281 281 282 283 284 281 280 281 281 282 282 282 282 282 282 282 282 282 282 282 282 282 281 281 281 281 281 280 280 280 281 280 280 279 279 279 279 278 278 278 277 277 276 275 275 274 274 273 273 273 273 273
265 265 266 266 266 266 267 268 269 270 271 271 272 272 273 273 274 274 274 274 275 275 275 276 277 277 279 280 280 279 279 279 279 280 281 282 283 282 280 280 279 279 279 280 281 281 281 281 282 282 282 282 282 282 282 282 282 281 281 281 281 281 280 280 280 280 280 279 279 278 278 277 277 277 277 275 275 275 275 274 274 273 273 273 272
265 265 265 266 266 267 267 268 269 270 271 271 272 272 272 272 273 273 273 273 274 274 273 274 275 274 274 275 277 275 275 276 278 278 280 280 280 279 279 279 279 278 278 279 279 279 279 280 280 280 281 281 281 281 282 281 282 281 281 281 281 281 281 281 281 281 280 280 279 279 278 278 278 277 277 276 275 275 275 274 273 273 273 273 272
265 266 266 266 267 267 268 268 269 270 270 271 271 271 271 271 271 271 271 272 272 272 272 272 272 272 272 273 272 273 273 272 273 274 276 276 277 278 278 278 278 278 278 278 278 278 278 278 279 279 279 279 280 280 280 280 281 281 281 281 281 281 280 280 280 280 280 279 279 279 278 278 278 277 277 276 275 275 275 273 273 273 272 272 271
264 264 265 266 267 267 268 268 269 269 269 269 269 270 269 269 269 269 269 269 269 269 269 269 269 270 270 270 270 270 269 270 272 273 273 273 273 275 276 275 275 275 275 276 276 277 276 277 278 278 278 278 278 278 278 278 279 279 280 280 280 280 280 280 280 279 279 279 279 278 278 277 277 277 276 276 275 275 275 274 273 273 273 272 272
263 264 265 266 267 267 267 268 268 267 267 268 268 268 268 268 268 268 268 268 268 267 267 267 267 268 269 269 270 271 269 269 269 269 269 269 270 270 270 270 270 270 271 271 272 272 273 274 275 276 276 276 277 277 277 277 277 277 277 278 278 279 279 280 280 279 279 278 278 278 277 277 277 276 275 275 276 276 275 274 273 273 272 272 271
263 264 265 265 266 266 266 266 266 266 266 267 266 267 267 267 266 266 266 266 266 266 266 266 266 266 267 268 269 269 268 267 268 267 267 267 267 267 268 268 268 268 268 268 268 268 269 270 272 274 274 273 273 273 273 274 274 274 275 275 275 275 276 278 278 278 278 278 278 278 277 277 276 276 276 276 275 275 274 274 273 272 272 271 271
262 263 264 265 265 265 265 265 265 265 265 265 265 266 266 266 265 265 265 265 265 265 264 264 265 265 265 267 267 267 266 266 266 265 265 265 265 265 265 265 265 266 267 267 266 266 266 267 268 270 271 272 271 271 271 271 271 272 273 273 273 273 273 274 276 277 277 277 277 276 276 276 276 275 275 274 274 274 274 273 272 272 271 271 270
263 263 264 264 264 264 264 264 264 264 264 264 265 265 265 265 264 264 264 263 263 264 263 263 264 264 264 264 265 264 263 264 264 264 263 263 263 263 263 263 264 264 265 265 265 264 264 264 265 266 268 268 268 269 269 269 269 269 269 270 270 271 271 272 272 273 274 275 275 275 275 275 274 274 273 273 274 273 272 272 271 271 271 270 270
262 263 263 263 263 263 263 263 263 263 263 264 263 263 264 264 263 263 263 263 263 263 263 263 263 263 263 263 263 262 262 262 263 263 262 262 262 262 262 262 262 263 263 263 264 263 263 263 263 263 264 265 265 266 266 267 267 267 267 267 267 268 268 268 269 271 272 272 273 274 274 273 273 273 273 273 273 272 271 271 271 269 269 269 269
261 262 262 262 262 262 262 262 262 262 262 262 262 262 262 263 263 262 262 262 262 262 262 262 262 262 262 262 262 262 262 261 261 262 262 261 261 261 261 261 261 262 262 262 263 262 262 262 262 262 262 262 263 264 264 265 265 265 265 265 265 265 265 266 267 269 270 271 272 273 273 273 273 272 271 272 272 272 271 271 270 269 269 268 268
260 261 261 261 261 261 261 262 261 261 261 261 261 261 261 261 262 262 262 262 261 261 261 261 261 261 261 261 261 261 261 261 261 261 261 261 261 261 261 260 261 261 261 262 262 262 261 261 261 261 261 261 262 262 263 263 264 264 265 265 265 264 264 264 265 268 268 269 270 271 272 272 272 271 271 271 271 270 270 270 269 268 268 268 267
260 260 260 260 260 260 260 260 260 261 261 260 260 260 261 261 261 261 261 261 260 261 261 261 260 260 261 260 261 261 261 261 261 261 261 260 260 260 260 260 260 260 260 261 261 261 261 261 261 261 261 261 261 262 262 263 264 265 264 265 264 264 264 264 265 265 265 267 269 270 270 271 271 270 270 270 269 269 269 268 267 267 267 267 266
259 259 259 259 259 259 259 259 259 259 259 259 259 259 260 259 260 260 260 260 260 260 260 259 259 260 260 260 260 260 260 260 260 260 260 260 260 259 259 259 259 259 259 259 260 260 260 261 261 261 260 261 261 261 262 263 264 264 264 265 265 264 264 264 263 263 264 266 268 269 269 269 269 268 268 268 268 268 268 267 267 266 266 265 265
258 258 258 258 258 258 259 259 258 258 258 258 258 258 259 259 258 258 258 259 259 259 259 259 259 259 259 259 259 259 259 259 259 259 259 259 259 259 259 258 258 258 258 258 259 259 259 259 260 260 260 260 260 261 261 262 264 264 264 265 265 265 265 264 264 263 263 264 266 267 267 268 267 267 267 267 267 267 266 266 265 265 265 265 264
257 257 257 257 257 257 257 257 257 257 257 257 257 257 257 257 257 257 258 257 257 258 258 258 257 258 258 258 259 258 258 258 258 258 258 258 258 258 258 257 257 257 257 258 258 258 258 259 259 259 259 259 260 260 260 261 263 263 264 265 265 264 264 264 264 264 263 264 265 265 266 266 266 266 266 266 266 266 265 264 264 264 264 264 264
Wind_Speed
7 7 7 7 7 8 7 7 8 7 7 7 6 6 5 5 5 5 4 5 4 5 5 6 6 6 7 7 7 7 7 7 7 5 6 7 6 7 8 8 8 7 5 6 6 7 9 10 11 10 8 8 8 8 8 9 8 8 8 8 9 9 10 11 14 18 11 8 11 10 8 4 5 8 10 8 7 8 11 11 11 11 11 12 12
7 7 6 6 8 8 7 6 7 6 7 6 6 5 5 5 5 4 5 5 5 6 6 5 5 6 6 7 7 7 8 9 8 7 7 6 7 6 7 6 8 8 7 9 7 7 7 9 11 10 8 10 9 10 9 8 8 9 9 9 10 10 10 10 13 13 20 6 9 8 10 8 13 7 11 9 9 7 10 9 9 11 11 11 11
6 6 6 6 7 7 6 6 6 7 7 6 7 6 6 5 5 5 5 5 5 5 5 5 5 6 6 6 7 8 8 8 7 7 7 7 7 7 7 6 7 7 8 9 8 7 8 10 11 9 6 9 10 10 9 9 8 10 10 9 11 11 10 11 11 14 16 16 8 10 8 8 10 10 9 8 9 8 10 11 11 9 10 12 11
6 6 6 6 6 6 6 6 6 6 7 6 7 6 5 5 5 5 5 4 4 4 4 5 6 6 7 6 7 7 8 7 7 7 8 7 7 7 6 7 8 8 9 9 8 7 9 9 10 9 8 10 10 10 9 9 10 10 11 11 11 12 10 10 12 13 13 15 12 9 9 9 10 9 8 6 8 9 9 9 8 10 10 9 11
6 6 6 6 6 6 6 5 5 6 6 4 6 6 5 5 5 5 5 5 5 4 4 3 5 7 6 7 7 7 7 7 7 7 7 6 7 7 7 7 8 8 9 9 8 9 9 10 10 9 9 11 11 10 9 11 10 10 11 10 10 10 8 9 12 11 13 16 16 9 8 10 9 9 5 8 8 7 7 9 9 10 9 10 10
5 5 5 6 6 6 5 5 5 5 5 5 5 5 5 5 5 4 5 5 4 4 5 3 4 6 6 7 7 7 6 6 6 7 7 7 7 7 7 7 7 7 8 9 9 9 10 10 10 10 10 12 12 11 10 12 10 11 11 10 9 9 10 11 10 12 13 16 14 14 9 10 9 8 6 8 9 9 7 7 7 8 9 10 10
5 5 5 5 5 5 5 5 4 5 5 5 4 4 4 4 4 5 4 4 4 3 2 4 4 5 6 6 6 6 6 6 7 7 7 7 7 6 7 7 7 7 7 7 8 9 10 10 10 10 11 12 12 12 10 10 10 12 11 11 10 9 10 10 10 12 13 14 14 12 13 10 8 13 6 8 9 9 10 8 10 9 8 10 10
4 4 5 4 4 5 5 4 4 4 4 4 4 4 4 4 4 3 2 3 3 3 4 5 4 4 5 5 5 5 5 5 6 6 6 6 6 6 6 7 7 7 7 8 8 9 10 10 10 11 11 12 12 11 10 11 9 10 9 9 9 10 11 10 11 11 12 13 13 13 11 11 9 9 5 4 5 7 7 10 13 9 9 11 12
5 5 5 5 5 4 4 3 3 4 4 4 4 3 3 3 2 2 2 2 3 3 4 4 4 4 4 5 5 4 5 5 4 5 6 6 7 6 7 7 7 8 8 8 8 9 9 10 10 11 12 14 17 15 14 12 10 11 10 9 10 11 11 10 10 10 11 11 14 11 11 12 11 8 9 8 10 12 6 8 10 10 7 7 7
5 5 4 4 3 4 4 3 3 3 3 3 2 2 2 2 2 2 2 2 3 3 3 3 4 5 5 5 5 5 5 5 6 8 6 5 5 5 5 6 6 7 8 8 9 9 9 9 10 14 16 17 17 18 19 19 19 15 11 8 9 9 10 10 10 10 10 12 14 11 12 14 11 9 10 10 8 7 7 7 10 9 5 8 6
4 4 4 4 4 3 3 3 3 3 3 2 2 2 2 2 2 2 2 3 3 3 3 3 4 4 5 5 5 5 5 5 8 8 9 10 8 7 7 7 6 7 8 8 9 9 9 9 9 11 14 15 16 19 19 20 20 21 21 18 14 11 10 11 12 10 11 13 13 11 13 14 14 8 10 8 8 9 10 9 10 7 8 8 11
4 4 4 4 4 3 3 3 3 3 3 2 2 1 1 1 2 2 2 2 3 3 3 4 4 4 4 4 5 5 5 6 7 8 9 10 9 7 7 7 7 7 8 9 9 9 9 9 8 8 9 11 10 11 15 20 21 21 21 21 21 22 21 15 12 11 12 12 14 14 11 13 13 10 9 7 8 9 10 9 10 9 10 10 10
4 5 4 5 5 4 3 3 3 3 3 2 2 2 1 1 1 2 2 2 1 2 3 3 3 3 4 4 5 5 5 7 9 9 9 10 11 10 7 7 7 8 8 9 9 9 9 9 9 8 8 11 11 10 10 10 15 21 22 22 22 23 22 24 23 18 12 13 15 16 13 9 13 12 7 9 7 10 7 9 9 9 11 11 11
4 5 5 6 5 4 4 3 4 4 3 2 1 1 0 0 0 0 0 0 1 2 2 3 3 3 4 4 5 5 5 6 8 8 8 9 10 9 7 7 8 9 9 9 9 9 9 10 10 10 8 8 7 9 9 10 10 10 11 12 13 16 20 23 22 24 21 16 15 17 15 8 13 12 7 6 8 10 8 10 9 10 11 13 14
5 6 7 6 6 5 5 4 5 4 2 1 1 1 1 1 1 1 1 1 2 1 2 3 4 4 4 4 5 6 5 5 6 8 8 8 9 8 7 7 7 8 9 9 10 10 10 10 10 11 10 8 7 9 9 9 8 9 10 11 12 11 11 11 13 13 13 13 15 17 17 14 13 13 10 7 8 10 9 11 12 12 11 8 5
6 7 7 7 6 5 5 4 4 4 4 2 2 2 2 1 1 1 1 1 1 1 2 2 3 4 5 5 6 8 6 6 7 8 9 9 9 5 6 7 8 9 9 9 9 9 9 10 10 11 11 10 11 14 14 11 9 10 11 11 10 11 11 11 14 14 13 13 13 14 12 12 12 11 10 9 8 8 7 6 3 2 5 7 10
7 7 7 6 6 5 5 5 4 3 3 3 3 3 3 2 1 1 1 2 2 3 3 3 3 3 4 4 6 8 7 7 7 8 8 9 7 4 4 5 7 9 10 8 8 9 9 9 10 10 11 10 11 13 13 12 10 12 12 13 12 11 11 8 13 17 19 21 22 21 21 20 18 18 18 18 12 8 6 7 10 7 8 9 9
7 7 6 6 5 5 5 4 3 3 3 3 3 2 2 2 2 1 2 2 3 3 3 3 3 3 4 4 6 6 7 7 8 7 7 8 7 5 4 5 7 7 9 9 8 9 10 14 13 11 12 12 12 13 13 10 10 11 11 13 15 13 12 8 8 9 15 18 20 20 20 19 19 20 21 21 20 13 8 12 10 7 9 10 11
7 6 6 5 5 5 5 4 4 3 3 2 2 3 3 2 2 2 2 3 3 3 3 3 3 3 4 4 7 8 7 7 8 9 9 9 7 4 4 5 7 7 7 8 7 7 8 9 13 13 13 14 16 16 16 12 10 11 11 12 15 15 12 6 9 9 8 8 9 9 11 13 12 10 11 16 17 14 11 12 8 8 8 10 9
6 5 5 6 6 6 4 4 4 3 3 3 2 2 2 2 2 3 3 3 3 3 3 3 5 6 5 5 5 6 7 7 5 10 9 9 9 5 4 5 7 8 7 7 8 7 8 8 10 13 15 16 16 17 16 16 12 11 10 11 13 16 9 8 9 8 9 9 9 8 9 8 7 7 7 7 8 9 9 9 9 9 10 9 9
6 6 6 6 6 4 4 4 4 3 2 3 2 2 2 2 3 3 3 3 2 3 4 5 5 6 4 4 4 5 5 6 7 9 11 9 9 8 4 6 7 7 8 8 7 9 8 7 6 9 13 13 13 14 16 16 15 12 11 12 13 13 12 10 11 11 9 9 8 8 7 6 7 6 6 7 6 6 7 8 9 10 10 10 9
6 6 6 6 4 4 4 4 3 2 3 2 3 2 2 2 2 3 3 3 5 6 5 5 5 6 5 5 5 7 6 9 7 8 10 10 9 9 6 6 6 7 9 9 8 9 9 8 7 9 11 12 12 13 15 15 16 11 13 18 20 20 15 11 10 8 8 8 7 8 7 7 6 6 6 6 6 7 7 8 9 10 10 9 10
7 6 5 5 5 5 4 5 4 3 4 4 4 4 2 2 3 3 3 4 5 6 5 5 5 6 6 5 4 5 5 6 9 7 9 10 10 10 11 9 10 7 9 11 10 10 9 9 9 11 12 13 14 16 16 17 15 12 19 21 20 20 17 11 9 9 8 8 7 8 8 7 6 6 5 5 5 7 7 7 7 8 8 8 6
5 5 5 5 5 5 6 4 4 3 4 4 4 4 4 4 3 3 3 3 4 5 4 4 5 6 7 7 4 4 4 4 6 9 8 9 9 10 12 13 13 9 9 10 10 10 10 9 9 13 14 16 17 18 20 17 14 20 22 22 21 17 11 9 9 9 8 8 8 8 8 6 5 5 5 5 5 5 6 5 6 5 4 2 3
6 6 6 6 6 6 6 4 5 5 5 4 4 4 5 5 4 4 4 4 4 5 5 5 6 7 7 8 8 6 3 3 3 4 8 10 9 10 11 13 14 15 11 9 10 10 12 17 19 18 18 19 20 21 19 19 22 21 21 21 18 11 10 9 9 8 9 9 8 8 7 6 5 6 5 4 2 0 3 4 5 5 5 6 6
7 7 7 7 7 8 8 6 7 7 6 5 4 4 5 5 4 5 4 4 4 4 6 6 5 6 7 7 7 7 6 5 5 4 4 5 6 8 10 11 13 13 13 12 15 20 20 20 21 20 17 15 12 9 9 9 13 16 16 15 9 9 8 8 8 9 9 8 8 8 6 4 4 3 2 2 3 4 4 3 4 3 4 5 5
7 7 8 7 6 7 8 7 8 6 6 6 5 5 4 4 4 5 4 5 6 6 7 7 7 8 8 8 8 8 7 6 5 4 3 4 6 8 9 9 10 10 8 7 8 8 9 9 9 13 15 19 19 17 16 14 12 11 9 8 8 8 8 8 8 9 9 8 7 6 4 3 2 3 2 3 4 3 4 4 4 3 4 4 6
6 7 7 6 6 6 6 9 9 6 6 6 5 5 5 4 4 5 5 6 6 6 6 7 7 8 8 9 9 9 8 6 6 4 6 8 10 10 9 9 9 8 8 8 8 10 11 12 14 10 9 8 8 6 6 6 7 6 6 5 5 6 8 10 9 8 7 6 5 4 2 3 3 4 3 3 3 3 4 4 4 4 3 5 4
6 6 5 5 5 5 5 6 6 7 7 7 5 5 6 5 6 5 5 4 4 6 7 8 8 8 8 9 10 11 10 8 6 11 14 17 15 12 10 10 10 10 11 16 14 12 11 10 10 9 8 8 8 8 7 6 6 6 6 6 6 6 5 5 7 7 6 4 5 5 4 3 3 3 3 3 3 3 4 4 4 5 3 2 4
6 5 5 5 5 5 5 6 6 6 7 7 8 6 6 9 8 7 6 7 10 11 10 9 9 9 10 10 8 10 12 12 18 22 21 20 19 20 20 20 19 15 17 23 16 12 10 11 10 10 8 8 8 8 7 6 6 6 6 7 6 6 6 6 6 5 5 5 5 5 4 3 3 4 4 4 3 3 4 6 5 5 6 5 5
4 4 5 5 6 6 6 6 5 6 7 8 8 9 9 6 8 10 10 10 10 11 13 15 16 15 12 11 11 15 18 21 22 21 22 21 21 21 21 20 20 20 20 15 10 10 10 9 9 9 9 8 8 8 7 7 7 7 8 7 6 6 6 6 5 4 5 5 4 4 4 4 5 4 4 4 4 3 3 3 4 5 5 5 5
5 5 5 5 6 6 5 5 6 6 6 6 6 7 7 9 7 6 10 11 12 13 13 13 13 13 15 14 14 11 14 17 21 23 23 22 21 20 20 20 20 20 19 19 11 10 9 9 9 9 8 9 9 8 7 7 7 7 7 6 6 5 5 5 5 5 5 4 4 4 4 5 4 4 4 4 5 4 4 4 4 4 4 4 5
5 5 4 5 5 5 5 5 5 5 6 7 6 6 7 8 10 11 8 8 11 13 13 13 13 14 15 16 17 17 18 20 22 21 20 20 22 21 22 22 21 20 20 12 9 9 8 8 8 8 8 9 8 7 7 7 7 7 6 6 6 5 5 5 4 5 5 5 5 5 5 4 4 4 4 4 5 5 5 5 5 5 5 5 5
5 3 4 5 5 4 4 5 5 5 5 6 6 6 6 7 8 9 11 11 9 8 10 14 16 16 15 17 17 19 20 21 21 21 21 21 21 21 21 17 20 20 16 10 9 8 8 7 7 8 8 8 8 8 7 7 7 7 6 6 6 5 5 4 4 6 5 4 4 4 4 4 4 5 5 4 5 5 5 5 5 5 6 6 6
4 5 6 5 4 5 5 5 5 5 5 5 6 6 7 7 7 8 9 10 11 11 10 10 11 15 15 15 18 21 20 20 22 23 24 23 22 21 20 12 9 7 6 5 6 6 7 7 7 8 8 8 8 7 8 8 7 7 6 6 5 5 4 4 5 4 4 4 4 4 4 5 5 5 5 5 5 5 5 5 6 7 7 7 6
4 4 4 4 4 4 5 5 5 5 5 6 6 6 7 7 8 8 8 8 9 10 10 9 9 11 19 17 18 18 19 21 22 23 22 21 19 18 9 8 9 8 7 6 6 6 6 7 7 8 8 8 7 7 7 7 7 6 6 5 5 4 4 4 4 4 4 4 5 5 4 4 5 5 4 4 6 6 6 6 6 7 7 6 6
4 4 3 4 4 5 5 5 5 5 7 7 6 6 6 7 7 7 8 8 9 9 10 10 10 10 10 8 12 17 21 21 20 20 18 16 15 9 7 8 8 8 8 8 7 7 7 6 6 7 8 8 7 8 7 7 6 6 5 5 5 5 4 4 4 4 4 4 4 5 5 5 5 5 5 5 5 5 5 5 6 6 6 7 6
3 3 4 5 5 5 5 5 5 8 6 6 6 6 7 7 7 8 8 8 9 10 10 10 10 9 10 10 15 12 15 19 19 13 11 11 9 7 7 7 7 8 8 7 8 7 7 7 7 7 7 8 8 8 7 7 6 5 5 5 5 5 7 6 6 5 4 4 4 4 4 5 5 5 5 5 5 5 6 5 6 6 5 7 7
3 5 7 9 6 5 5 5 6 6 6 6 6 7 7 7 7 7 8 8 8 8 9 9 9 9 10 11 11 14 15 12 11 11 11 10 9 8 7 7 7 7 7 7 7 7 7 7 6 7 7 7 7 7 7 7 7 6 5 5 5 4 4 4 4 4 3 4 4 3 4 4 4 4 5 5 5 6 6 6 7 7 7 7 8
5 4 6 10 6 6 5 6 5 6 6 6 6 6 7 7 7 7 7 7 7 7 8 8 8 8 10 11 12 13 12 11 10 11 11 11 11 10 10 10 11 11 11 10 9 9 9 8 8 7 7 7 7 7 6 6 7 7 7 6 5 5 4 3 3 3 4 4 4 4 4 4 4 4 5 5 5 5 6 6 7 7 7 7 7
4 5 6 6 7 6 5 5 5 6 6 6 6 6 6 7 7 7 6 7 7 7 7 7 7 8 9 13 19 18 11 10 10 10 10 10 10 10 10 9 9 10 10 10 10 10 9 9 8 8 7 8 8 7 7 6 6 6 7 7 8 7 6 5 4 3 3 3 4 4 3 3 4 4 5 5 6 6 6 5 5 5 5 5 6
4 5 5 5 6 5 5 5 6 6 5 6 5 5 6 6 6 6 6 6 7 7 7 7 7 7 11 18 17 19 10 7 8 9 9 9 9 9 9 9 9 9 8 9 9 9 9 9 9 8 7 7 8 8 8 7 7 6 7 7 7 8 8 7 5 5 4 3 3 3 3 3 4 4 5 4 4 4 5 5 5 5 5 6 6
4 4 4 4 4 4 5 4 5 4 5 5 5 6 6 6 5 6 6 7 7 7 7 7 7 7 9 13 14 15 8 7 7 8 8 8 8 8 9 8 9 8 8 8 8 8 8 9 9 8 8 8 8 8 8 8 7 7 6 6 6 7 7 8 8 7 5 4 4 3 3 3 3 3 3 3 3 3 4 5 5 5 5 6 6
2 3 4 3 3 2 3 3 3 4 4 6 6 6 6 5 5 5 5 6 6 6 6 7 7 7 7 9 9 8 7 7 7 7 8 7 7 7 7 8 8 9 8 8 7 8 8 8 8 8 8 8 8 8 7 7 7 7 7 7 6 6 7 7 8 8 9 8 6 4 4 3 3 2 2 3 3 4 4 4 5 5 5 6 6
2 2 2 2 2 2 2 3 3 4 5 5 4 4 6 4 5 5 5 5 6 6 6 6 6 6 7 7 7 7 7 7 8 7 7 8 8 7 7 8 9 8 8 7 7 8 8 8 8 8 9 8 8 7 7 7 7 6 7 7 7 7 8 8 8 8 8 8 7 6 4 3 3 2 3 3 3 4 4 5 5 5 5 5 6
2 2 3 2 3 3 3 2 4 3 3 4 4 4 4 4 4 4 5 6 6 6 6 6 6 6 7 6 7 7 6 6 6 6 7 6 7 7 7 7 8 8 8 7 8 8 8 7 7 7 8 8 8 7 7 7 6 6 6 5 6 6 7 8 8 8 8 7 7 6 5 4 3 2 2 2 2 3 3 4 4 5 5 6 6
2 2 2 2 2 3 3 3 2 2 2 2 3 3 3 3 4 4 5 6 6 6 5 5 5 6 6 6 6 6 7 6 6 6 6 6 6 6 7 7 8 8 7 8 8 8 8 7 7 7 7 7 7 8 7 6 6 6 6 6 6 7 6 7 7 7 8 8 8 6 6 4 3 2 1 1 1 2 2 3 4 6 5 5 6
2 2 1 2 2 2 2 2 2 4 3 3 2 3 4 4 3 4 4 4 4 5 5 5 5 5 6 6 6 5 6 5 6 6 6 5 5 6 7 7 7 8 8 7 7 7 7 7 8 8 8 8 7 7 7 6 6 6 6 5 6 7 9 10 6 7 6 6 6 7 6 5 4 3 1 0 0 1 2 2 3 3 3 5 4
2 1 2 1 1 2 2 2 3 2 2 2 3 3 4 3 3 3 3 3 4 4 4 5 5 5 5 6 6 5 6 7 6 6 5 5 5 5 6 6 7 7 7 7 7 7 7 7 7 7 7 7 7 7 7 7 7 6 7 5 8 13 12 12 8 7 10 7 6 6 6 5 4 4 4 3 3 2 2 2 2 3 3 3 4
2 2 2 2 2 2 2 2 2 2 3 3 3 3 3 4 3 4 3 4 4 4 4 4 5 5 5 6 7 6 5 6 6 6 6 5 5 5 6 6 7 7 7 7 7 7 7 7 7 7 7 7 8 8 7 7 7 8 8 9 15 16 16 14 10 13 9 6 6 6 6 5 4 3 3 2 3 2 3 3 3 3 3 4 4
2 2 2 2 2 2 2 2 2 2 2 3 3 3 3 3 3 3 4 4 5 5 5 5 5 6 5 5 6 6 6 6 6 6 6 6 6 6 6 6 7 7 7 7 7 6 7 7 6 7 7 7 7 7 7 7 7 9 12 16 16 16 16 15 9 11 15 10 6 6 5 5 4 4 3 3 2 2 2 3 3 3 3 3 4
Wind_Direction
182 185 180 188 185 191 190 192 198 200 201 205 206 209 208 207 209 214 208 216 201 203 217 224 228 226 223 221 222 226 226 237 237 219 217 220 221 228 230 217 223 228 222 228 221 218 225 233 236 236 226 229 233 234 232 230 225 228 226 229 231 227 228 236 250 266 264 232 264 261 253 219 236 205 237 230 224 221 227 232 229 226 227 231 232
188 186 185 185 190 193 191 188 196 196 199 200 204 205 201 200 200 200 208 212 207 216 220 220 227 233 232 236 234 232 237 241 242 235 227 216 219 220 231 220 223 227 218 230 226 223 222 232 238 236 225 231 234 237 231 230 226 224 227 223 230 233 220 232 247 257 272 242 249 250 260 238 260 204 228 232 232 209 221 223 225 223 227 226 228
179 182 183 186 191 192 192 192 188 195 194 200 201 202 198 202 198 201 205 212 216 222 224 226 235 235 238 240 244 245 243 241 239 240 239 225 215 220 224 222 224 229 229 232 229 222 228 232 239 235 227 231 234 237 232 235 227 228 229 224 233 233 229 224 241 255 262 269 240 261 248 247 228 246 232 236 237 215 221 220 220 220 223 223 226
173 177 181 185 187 188 193 194 191 193 197 201 200 198 194 193 194 202 207 212 219 225 220 237 241 244 247 243 244 246 247 246 241 240 245 245 233 218 213 222 228 232 234 236 232 225 231 236 239 232 228 233 234 235 231 231 230 230 229 228 231 235 229 225 230 244 262 271 259 235 253 247 248 241 242 233 226 227 222 232 219 226 223 222 226
174 179 183 181 185 188 192 192 197 204 206 208 203 195 193 189 192 201 202 211 219 228 233 227 244 249 245 242 243 244 247 251 257 252 246 243 251 247 227 218 222 228 235 238 234 230 231 234 239 230 226 234 237 235 231 228 228 230 233 229 230 234 232 229 236 237 253 258 268 251 247 253 253 254 211 237 244 240 236 232 226 229 228 229 229
175 175 179 184 185 186 191 192 201 203 204 210 206 196 191 189 190 195 204 212 217 221 227 228 231 241 246 246 247 249 251 247 246 253 258 253 243 245 248 236 230 225 228 232 235 233 235 237 237 232 230 232 238 236 234 235 233 234 235 235 232 232 235 235 235 241 244 256 261 274 247 252 260 244 222 225 242 250 242 238 244 232 229 235 230
174 176 177 183 184 185 192 192 195 198 199 204 200 196 190 185 186 198 200 206 210 226 225 228 233 239 246 249 252 254 251 248 249 245 244 248 250 244 242 243 240 238 235 232 233 236 238 240 241 235 235 236 240 239 237 237 233 237 235 239 232 234 237 239 237 241 245 255 262 257 267 255 244 264 230 207 227 231 245 248 244 226 230 231 238
176 179 177 182 193 190 192 189 183 189 189 186 186 186 185 181 185 187 181 198 200 211 230 230 229 230 242 248 251 252 253 252 252 250 249 245 243 242 245 247 247 244 245 243 239 241 240 240 239 238 238 240 241 243 236 241 235 241 234 232 229 230 237 238 238 240 247 252 255 262 256 265 256 247 243 172 225 243 222 232 250 243 222 225 227
173 177 175 187 193 183 163 149 159 162 168 177 177 180 173 171 161 166 178 199 211 213 224 234 238 242 243 244 243 244 250 250 244 240 242 247 249 247 246 247 245 245 244 245 245 243 244 243 241 241 238 240 240 241 240 236 235 241 235 222 225 225 233 234 236 238 246 250 259 256 263 262 254 251 246 230 225 241 222 210 244 250 243 234 235
166 168 170 179 158 138 135 138 161 164 163 164 161 158 166 157 157 167 194 205 206 210 214 224 232 240 246 246 243 238 236 236 226 230 244 251 256 260 258 248 248 251 254 254 252 250 250 246 245 240 240 240 240 239 240 240 239 239 241 222 225 227 231 235 237 237 244 251 253 257 258 259 258 241 245 241 239 236 228 213 234 241 238 247 240
153 152 154 131 113 126 146 143 143 150 144 136 138 146 152 145 156 181 191 201 207 216 229 231 234 236 235 240 242 239 240 234 220 215 215 230 243 256 259 261 259 255 253 252 254 253 248 244 246 239 237 239 241 241 241 241 241 242 243 241 236 229 232 235 239 233 241 249 255 251 251 262 260 247 243 248 237 232 231 225 234 229 224 229 246
134 125 103 106 112 116 113 114 123 117 114 121 123 123 113 138 173 189 204 214 218 218 227 231 237 240 238 245 249 246 246 242 227 218 216 222 225 237 251 254 250 252 254 254 257 256 256 253 246 244 241 241 240 236 236 238 239 239 239 240 240 239 237 237 243 243 237 247 255 250 250 254 266 254 250 242 242 237 231 224 226 221 228 229 236
107 101 96 91 88 81 80 86 83 76 70 65 75 75 116 163 205 215 231 235 230 224 234 241 241 243 244 249 253 248 250 232 224 225 223 225 228 227 247 248 250 253 255 255 257 258 261 262 264 254 254 239 234 241 247 243 231 234 237 239 240 238 240 242 241 243 248 249 254 260 247 252 261 257 238 243 235 243 228 226 225 224 227 230 235
88 86 81 73 69 65 63 63 58 57 51 41 44 51 74 292 278 284 291 265 240 253 259 253 256 254 251 257 263 262 257 245 232 234 233 234 235 233 248 251 255 255 255 256 257 258 257 261 264 264 261 256 244 243 247 248 252 244 238 236 239 240 239 240 242 245 245 247 253 259 260 239 251 263 250 228 236 242 232 233 221 224 225 229 229
74 72 70 62 56 50 50 49 51 57 55 48 37 25 11 355 355 306 273 258 253 250 248 248 248 255 267 270 274 274 269 266 257 259 257 249 249 244 253 255 257 258 258 256 257 257 260 259 261 265 265 258 252 253 255 255 254 253 252 251 246 243 236 232 233 238 242 245 248 253 260 256 256 261 263 245 239 246 234 232 222 223 230 246 271
65 61 61 54 51 45 44 49 52 52 40 30 26 10 12 352 336 323 307 293 282 276 274 266 264 256 255 263 270 273 272 247 239 248 259 260 252 245 250 255 257 258 257 256 256 258 259 260 263 267 268 267 263 258 258 262 264 259 255 256 255 254 251 239 235 233 232 238 242 248 254 256 254 255 256 253 248 249 250 251 259 217 223 230 235
55 55 55 46 43 41 40 40 39 32 28 24 16 6 357 340 329 324 299 279 272 260 259 254 246 247 245 242 255 268 273 273 263 251 253 264 267 260 257 259 260 261 263 263 263 262 260 260 261 266 267 265 264 261 261 259 263 264 264 267 265 261 259 250 241 242 240 241 246 249 255 259 261 262 259 254 250 234 223 230 223 192 205 226 234
49 50 49 42 38 42 39 35 37 27 26 19 3 353 339 315 306 320 302 292 279 273 276 274 262 253 251 257 256 271 276 276 278 275 268 266 260 265 267 268 267 266 271 265 264 263 258 254 253 258 263 266 267 268 268 263 264 265 266 269 270 266 262 254 252 246 243 245 249 253 255 259 260 261 263 263 261 254 199 225 226 192 218 219 232
42 40 42 41 41 39 41 31 28 21 17 1 351 327 312 321 327 319 298 285 276 268 262 271 274 273 262 260 260 261 275 281 279 279 272 267 261 255 261 268 270 267 270 274 265 263 267 256 249 247 253 261 263 264 264 262 263 265 266 269 269 268 264 257 254 252 250 249 248 251 255 256 258 257 258 260 257 255 234 233 225 208 216 224 230
30 36 40 40 40 28 32 33 17 18 5 346 334 329 318 330 340 327 311 293 292 300 301 296 294 286 283 276 270 258 274 282 281 282 279 270 257 249 256 264 268 275 275 277 284 274 268 271 268 263 260 260 260 260 259 256 257 262 264 263 266 267 272 260 252 250 254 250 250 240 244 242 246 246 249 250 249 241 233 225 226 220 224 229 222
27 32 36 38 35 27 20 20 5 360 351 337 337 323 330 337 324 319 304 294 299 298 293 286 280 279 271 269 274 272 259 270 271 260 268 258 253 241 248 247 262 273 280 280 275 281 278 270 272 265 265 266 263 259 256 255 253 257 258 261 258 268 275 271 266 257 258 257 253 249 248 242 239 241 244 245 238 232 229 223 222 222 220 225 227
19 30 31 28 21 16 15 357 347 347 335 332 341 321 311 288 290 296 295 297 288 282 283 284 284 283 280 269 262 265 256 244 259 261 263 264 258 246 253 258 258 279 282 277 275 273 271 276 275 273 274 273 271 269 266 263 260 258 261 265 268 268 267 266 269 266 259 256 251 250 248 239 242 241 239 238 232 229 228 224 222 222 223 224 220
17 25 24 21 13 9 359 350 349 344 346 336 324 306 302 306 290 265 259 280 287 294 292 287 284 286 284 270 256 251 250 242 234 250 260 259 257 257 254 260 267 265 270 275 274 274 276 276 274 278 280 280 277 275 271 268 267 262 267 268 268 269 270 268 268 265 261 256 250 250 248 242 238 242 232 233 233 228 231 228 225 223 224 228 221
16 25 24 19 10 6 352 345 353 343 345 334 328 316 319 318 301 302 309 300 303 302 299 305 300 297 299 301 291 275 257 238 230 228 250 257 256 259 262 265 268 264 264 271 275 277 281 278 280 284 286 285 283 281 279 274 269 268 268 268 269 272 271 269 263 260 257 251 245 247 249 242 240 229 228 230 233 234 238 242 240 228 210 124 105
17 21 15 12 8 5 348 345 358 348 342 332 333 333 327 333 318 319 324 310 300 298 298 305 301 302 306 308 313 316 306 287 287 241 239 255 254 256 264 268 271 273 275 275 275 276 280 285 288 288 287 285 281 280 279 273 268 266 266 267 267 265 263 258 258 256 254 250 245 247 248 236 224 226 232 240 230 63 81 56 64 68 79 86 67
18 20 13 10 6 1 354 356 356 344 339 338 329 321 316 319 322 320 315 301 290 291 304 308 308 313 313 314 316 324 325 321 308 300 262 250 252 253 259 263 265 266 263 269 273 281 282 285 286 285 282 278 274 268 264 263 261 260 259 260 258 255 253 255 252 251 247 245 244 246 244 230 222 223 209 191 191 194 156 132 123 100 126 122 95
22 19 12 3 3 6 357 359 343 339 342 340 329 326 325 323 319 313 315 319 323 322 320 325 326 325 320 319 318 318 318 317 313 305 336 355 354 342 327 313 301 291 276 278 274 278 285 289 293 290 285 278 272 269 269 272 274 269 264 252 249 248 248 248 248 246 246 243 244 242 227 200 138 129 181 193 206 179 164 160 149 147 144 141 124
25 17 12 9 4 2 357 349 341 332 331 334 331 333 336 332 325 322 330 331 327 328 332 330 330 325 321 320 317 312 309 317 317 349 0 339 323 315 308 305 302 302 300 298 299 296 294 290 284 276 269 267 265 261 255 251 252 260 260 263 257 252 254 254 254 253 246 242 240 234 181 159 177 197 186 201 199 154 157 160 156 144 149 135 114
12 18 17 13 6 2 351 349 343 338 331 328 323 324 324 320 318 302 297 301 315 321 319 312 308 307 308 308 309 305 303 305 316 333 318 312 307 308 307 304 303 297 295 298 297 294 292 289 286 283 280 279 283 282 285 284 282 276 269 264 265 262 260 251 249 244 243 227 230 219 219 178 198 180 181 185 181 152 159 152 151 148 144 166 147
6 11 13 8 2 353 346 346 345 339 336 329 330 323 331 320 299 298 302 307 307 303 302 296 300 302 299 293 294 299 304 304 308 308 308 309 306 303 301 300 299 296 294 295 295 291 287 289 286 285 284 283 285 287 286 289 287 279 274 273 262 257 259 256 252 245 233 235 230 220 209 183 185 182 183 189 163 148 167 167 155 157 156 168 148
0 1 3 6 358 351 346 341 332 332 335 336 332 331 329 338 328 315 303 304 307 308 307 301 299 298 296 299 298 295 296 302 306 308 309 310 309 306 305 303 301 298 297 298 290 283 286 281 282 282 281 280 279 281 282 283 279 277 280 278 267 257 254 255 246 240 237 231 224 215 200 191 197 189 193 189 170 146 142 146 145 164 177 169 156
357 350 356 347 348 342 334 327 324 328 330 331 331 328 328 325 328 340 336 321 312 311 313 314 310 308 305 304 307 306 304 303 307 312 314 313 310 309 306 303 300 298 295 293 286 279 276 278 279 280 283 282 278 279 279 276 274 274 278 279 268 256 252 253 244 240 235 215 212 208 199 202 197 193 185 179 159 162 159 150 153 160 170 176 166
352 348 346 342 334 323 322 327 318 325 327 333 331 331 334 334 331 327 333 329 325 326 327 326 324 321 317 313 310 306 306 309 312 313 314 313 312 309 307 303 299 295 294 287 275 275 274 277 280 283 284 283 282 280 276 271 270 268 267 269 271 265 259 254 238 238 227 215 206 205 203 197 186 182 183 170 163 169 171 163 163 164 172 161 152
339 331 334 327 322 314 322 325 328 327 328 324 318 322 319 322 318 319 322 329 333 332 332 333 330 325 321 317 313 311 312 315 316 319 320 316 311 306 304 301 295 291 283 276 272 273 275 278 278 281 285 285 285 281 276 272 268 267 263 260 261 265 264 254 236 236 229 224 217 213 196 189 180 179 184 179 179 175 170 173 164 166 178 180 165
333 318 320 324 320 323 321 322 320 319 315 314 315 317 316 317 318 321 324 326 327 326 329 328 328 328 323 321 320 321 323 327 328 323 318 313 310 309 310 303 300 303 292 275 275 277 278 279 284 286 288 289 286 279 276 274 271 266 263 259 257 258 261 256 245 239 215 214 212 208 197 193 193 187 184 176 172 175 176 171 181 183 184 181 165
325 328 327 335 332 318 310 308 307 307 311 311 313 311 315 318 322 319 316 314 315 318 321 326 324 324 323 323 323 329 333 332 323 316 312 309 310 321 320 312 312 312 308 305 296 287 285 283 285 288 291 292 290 283 277 277 271 266 263 262 264 263 263 255 238 228 223 221 216 209 199 195 195 192 189 186 186 186 179 182 185 191 188 184 169
332 328 330 326 320 308 305 301 301 310 314 313 314 317 320 320 319 320 321 323 322 324 323 323 326 325 328 329 338 336 329 325 322 317 316 318 326 332 321 319 315 316 315 314 316 312 307 306 305 303 301 300 299 296 290 282 278 270 269 264 260 260 257 249 241 233 224 221 218 205 199 198 197 193 189 192 192 192 196 186 188 186 187 178 158
316 326 325 326 318 314 317 321 320 325 328 330 329 329 330 328 328 326 326 326 328 326 325 328 331 330 333 335 345 339 330 327 327 329 331 336 337 330 322 314 313 311 314 319 323 324 318 315 318 316 317 316 311 308 302 293 287 280 273 266 259 251 253 255 255 253 241 231 226 210 200 202 196 192 192 194 194 192 191 178 180 183 182 177 173
337 334 343 343 339 337 333 331 331 338 337 340 340 337 336 334 335 334 333 330 329 328 329 331 333 337 341 342 339 336 336 336 340 339 341 342 338 332 324 320 317 317 315 318 321 321 318 317 317 318 315 315 318 321 325 322 318 306 293 281 271 268 261 255 249 244 234 228 231 214 203 202 197 195 194 198 201 195 189 180 184 182 182 184 190
340 342 340 346 349 345 342 338 339 347 345 344 341 344 342 342 340 338 335 336 333 335 334 336 338 343 341 343 342 340 340 335 338 342 343 344 344 347 350 352 352 349 345 341 344 343 337 331 326 322 319 320 322 324 325 330 330 327 324 314 305 289 279 268 256 248 236 232 229 220 209 204 199 194 197 206 207 198 193 190 190 187 189 188 185
334 335 339 345 351 344 345 350 355 352 346 343 343 344 346 341 337 335 337 336 337 337 338 337 339 338 340 342 344 345 341 337 339 345 344 343 344 347 349 350 350 349 346 346 344 340 333 327 326 327 334 339 337 336 334 333 336 340 336 333 328 319 311 301 292 273 262 247 238 230 221 214 204 198 206 211 210 207 203 191 182 188 183 174 169
340 340 345 347 351 355 353 357 352 349 345 349 344 346 345 343 340 341 339 339 339 338 337 337 337 338 335 340 346 347 348 341 343 342 343 343 344 344 345 344 344 342 342 342 341 336 330 329 329 332 339 343 347 341 338 339 344 340 340 340 336 334 330 325 318 305 293 272 262 245 231 223 215 215 222 215 200 195 194 184 185 175 175 169 170
332 333 337 343 351 353 358 347 349 345 352 351 346 342 343 344 346 345 345 344 341 337 337 334 332 334 335 338 345 349 349 344 344 342 344 342 342 340 341 339 337 334 335 336 336 333 327 328 330 337 343 346 353 344 342 343 339 334 338 341 336 336 331 327 325 323 315 298 288 277 259 238 228 217 219 207 203 191 193 173 169 175 175 165 168
341 346 349 353 350 359 355 354 350 348 350 343 343 345 346 348 345 344 341 337 335 333 329 326 327 332 329 335 340 347 344 344 340 342 339 337 338 337 335 334 331 331 333 335 337 337 335 332 333 335 339 343 347 345 348 346 341 342 340 340 336 338 336 342 342 341 337 326 311 298 277 255 242 224 219 211 197 186 188 170 173 175 171 171 164
336 346 346 350 346 356 351 353 359 346 343 343 348 342 345 347 343 338 336 332 332 330 326 324 328 328 329 333 336 340 338 336 334 334 338 338 337 335 335 334 334 329 328 331 335 335 334 334 332 333 336 339 343 344 346 344 347 349 344 345 347 345 341 337 331 324 319 317 315 308 293 283 254 235 226 217 198 187 180 179 176 163 163 167 168
347 339 350 346 356 346 353 348 347 349 342 345 339 340 333 337 333 335 331 330 329 324 322 325 327 328 327 329 331 334 329 331 331 331 329 329 332 332 332 333 332 330 329 329 330 334 334 334 335 333 333 332 335 337 342 346 344 345 345 352 356 342 332 328 320 317 321 323 321 318 310 298 284 274 255 235 204 199 197 185 168 171 173 170 170
338 334 338 336 336 334 336 334 347 328 331 323 330 325 323 325 326 326 322 326 321 319 320 321 323 324 324 323 323 323 325 328 326 326 322 322 324 326 330 330 330 330 330 331 334 335 332 331 330 327 328 328 330 335 337 339 343 344 347 350 353 344 339 329 321 329 334 330 324 322 320 313 302 293 276 249 177 176 170 178 172 172 168 165 162
309 307 302 311 311 323 322 324 319 317 315 323 314 315 306 309 314 309 310 313 316 314 316 311 317 314 319 314 315 314 318 316 317 316 319 319 321 325 327 327 331 330 328 328 332 333 333 333 333 330 330 330 332 332 330 331 334 348 345 346 352 350 346 346 332 341 329 321 325 330 329 331 335 357 8 16 329 138 155 145 131 136 145 147 152
298 301 313 309 313 308 313 322 315 314 312 305 308 300 302 304 299 302 300 303 302 304 301 307 304 309 307 308 308 310 309 311 311 315 316 317 318 323 324 326 325 325 326 327 328 330 329 330 331 331 330 329 328 326 325 325 333 346 340 338 351 354 353 359 354 348 339 336 342 340 346 347 1 9 11 12 3 26 71 81 108 115 114 123 137
295 306 296 304 296 298 296 294 289 288 294 300 291 291 292 293 293 292 298 296 299 294 295 294 297 298 301 302 305 307 308 309 310 312 311 313 315 317 318 321 323 323 324 321 324 324 326 326 327 328 329 328 329 329 329 323 333 346 343 344 354 357 356 355 354 355 357 336 341 347 347 355 4 20 15 15 26 57 70 92 101 112 121 133 141
303 295 294 288 292 289 288 280 278 280 278 278 280 283 288 286 285 289 287 290 285 289 292 296 297 294 292 294 299 300 302 298 300 299 304 305 310 312 314 316 319 318 315 315 320 322 323 322 324 326 327 326 326 328 330 328 333 339 341 344 355 359 358 355 356 3 360 352 345 351 356 360 6 9 6 17 28 46 82 93 111 122 141 141 143